This demonstration page uses our WeatherBlox Daily Observations layout. Learn more.

38.89511, -77.03637

Hourly Observations for October 13, 2015

Temp ( °F °C ) Dew Point ( °F °C ) Humidity (%) Winds ( mph kmh ) Pressure ( in mb ) Visibility ( mi km ) Precip ( " mm )
12:52 am 00:52 Clear 61 16.1 56 13.3 84 84 S 6 9 29.67 1005 10 16.0934 0 0
1:52 am 01:52 Clear 61 16.1 58 14.4 90 90 S 7 11 29.65 1004 10 16.0934 0 0
2:52 am 02:52 Clear 61 16.1 58 14.4 90 90 S 7 11 29.62 1003 10 16.0934 0 0
3:52 am 03:52 Clear 60 15.6 57 13.9 90 90 SSW 6 9 29.6 1003 10 16.0934 0 0
4:52 am 04:52 Mostly Clear 60 15.6 58 14.4 93 93 SSW 6 9 29.6 1002 10 16.0934 0 0
5:52 am 05:52 Mostly Clear 61 16.1 58 14.4 90 90 S 9 15 29.59 1002 10 16.0934 0 0
6:52 am 06:52 Mostly Cloudy 60 15.6 58 14.4 93 93 S 7 11 29.59 1002 10 16.0934 0 0
7:52 am 07:52 Mostly Cloudy 61 16.1 59 15 93 93 S 7 11 29.57 1001 10 16.0934 0 0
8:52 am 08:52 Cloudy 62 16.7 59 15 90 90 SSW 8 13 29.61 1003 10 16.0934 0 0
9:52 am 09:52 Cloudy 63 17.2 58 14.4 84 84 SW 5 7 29.62 1003 10 16.0934 0 0
10:52 am 10:52 Mostly Cloudy 67 19.4 58 14.4 73 73 Calm 29.61 1003 10 16.0934 0 0
11:52 am 11:52 Mostly Cloudy 68 20 59 15 73 73 S 6 9 29.6 1002 10 16.0934 0 0
12:52 pm 12:52 Partly Cloudy 71 21.7 60 15.6 68 68 SSE 8 13 29.58 1002 10 16.0934 0 0
1:52 pm 13:52 Partly Cloudy 73 22.8 60 15.6 64 64 S 9 15 29.57 1001 10 16.0934 0 0
2:52 pm 14:52 Mostly Cloudy 74 23.3 59 15 60 60 S 8 13 29.55 1001 10 16.0934 0 0
3:52 pm 15:52 Mostly Cloudy 77 25 55 12.8 47 47 WSW 9 15 29.56 1001 10 16.0934 0 0
4:52 pm 16:52 Mostly Cloudy 76 24.4 54 12.2 47 47 NNW 9 15 29.57 1001 10 16.0934 0 0
5:52 pm 17:52 Mostly Cloudy 73 22.8 56 13.3 55 55 SSW 7 11 29.57 1002 10 16.0934 0 0
6:52 pm 18:52 Mostly Cloudy 71 21.7 56 13.3 59 59 SW 8 13 29.61 1003 10 16.0934 0 0.0254
7:52 pm 19:52 Cloudy 67 19.4 59 15 76 76 SSE 3 6 29.63 1003 10 16.0934 0 0
8:52 pm 20:52 Cloudy 67 19.4 60 15.6 79 79 Calm 29.65 1004 10 16.0934 0 0
9:52 pm 21:52 Cloudy 65 18.3 62 16.7 90 90 S 6 9 29.68 1005 10 16.0934 0 0
10:52 pm 22:52 Mostly Cloudy 68 20 51 10.6 55 55 NNW 10 17 29.72 1007 10 16.0934 0 0
11:52 pm 23:52 Partly Cloudy 64 17.8 51 10.6 63 63 N 8 13 29.75 1007 10 16.0934 0 0

Powered by AerisWeather